Tracking 28790 objects as of 19-Apr-2024
HD Live streaming from Space Station
objects crossing your sky now

FENGYUN 1C DEB

Track FENGYUN 1C DEB now!
10-day predictions


NORAD ID: 30261
Int'l Code: 1999-025XW
Perigee: 462.5 km
Apogee: 655.6 km
Inclination: 98.8 °
Period: 95.7 minutes
Semi major axis: 6930 km
RCS: 0.028 m2 (small)
Launch date: May 10, 1999
Source: People's Republic of China (PRC)
Launch site: Taiyaun Space Center, China (TSC)

Note: This is SATELLITE DEBRIS
Your satellite tracking list
Your tracking list is empty




NASA's NSSDC Master Catalog

Two Line Element Set (TLE):
1 30261U 99025XW  24109.76466933  .00022400  00000-0  12761-2 0  9994
2 30261  98.7540  35.3290 0139328 194.6916 165.0240 15.04875230931377
Source of the keplerian elements: AFSPC